Location: Gilevgi
(36.8751°N, 30.0581°E)
Time: 01:54:09
(UTC+00:00)

Cosmos 1386 Rocket - Pass Details

Date: 11 December 2025
Orbit: 929 x 1004 km, 83.0° (Epoch: 14 January)

Event Time Altitude Azimuth Distance (km) Brightness Sun altitude
Rises 17:02:26 0° 354° (N) 3,613 7.5 -27.0°
Reaches altitude 10° 17:04:54 10° 355° (N) 2,673 6.7 -27.5°
Enters shadow 17:10:00 64° 9° (N) 1,058 4.5 -28.5°
Exits shadow 17:12:24 57° 162° (SSE) 1,123 4.6 -29.0°
Drops below altitude 10° 17:17:14 10° 172° (S) 2,709 6.8 -29.9°
Sets 17:19:45 0° 173° (S) 3,663 7.5 -30.4°
